Lid_Strength_Index
3 3 2 2 2 2 2 2 2 1 1 1 1 1 2 2 3 7 10 8 6 1 1 5 6 7 9 10 9 9 13 15 13 11 10 8 9 9 8 9 9 8 9 7 6
3 3 2 2 2 2 2 2 2 2 2 2 2 2 2 3 6 9 5 3 1 0 5 8 9 9 11 11 10 11 14 13 10 9 9 9 9 9 9 10 10 9 7 6 5
4 3 3 2 2 2 2 2 2 2 2 2 2 2 3 3 9 7 1 1 1 1 5 7 9 10 13 12 11 12 14 11 10 8 8 9 9 8 9 10 10 10 9 7 7
4 4 3 3 2 2 2 2 2 2 2 3 3 3 2 5 11 7 -1 -1 0 1 7 9 8 11 14 13 11 13 11 10 10 9 9 9 8 9 8 8 7 8 8 8 8
5 4 3 3 3 3 3 3 3 3 3 3 3 3 6 11 10 4 -1 -1 2 6 9 7 9 12 15 13 13 13 12 11 10 10 11 9 10 9 9 7 6 7 8 8 8
5 5 4 3 3 3 3 3 3 3 3 3 3 3 8 15 9 2 1 3 4 6 7 6 8 8 11 12 13 12 12 11 11 10 10 10 10 11 9 7 7 7 9 9 7
5 5 5 4 3 3 3 3 3 2 3 3 3 3 8 13 6 2 2 5 5 5 6 5 6 10 11 12 11 11 13 12 11 11 11 10 12 11 9 8 8 7 8 8 6
5 5 5 5 4 3 3 3 2 2 2 3 3 6 10 7 5 3 4 6 6 5 6 6 7 10 12 11 11 13 14 16 13 11 10 11 14 10 9 9 9 8 7 7 9
5 5 5 5 5 4 3 3 3 2 2 2 7 8 8 2 4 3 4 6 5 6 6 4 8 11 11 14 16 16 18 17 14 12 12 12 14 10 9 10 10 9 9 8 7
5 5 5 5 5 5 4 3 2 2 3 3 4 9 7 6 4 4 5 4 6 6 8 9 11 13 14 15 18 17 17 16 15 12 12 13 13 11 10 9 9 10 10 9 8
5 5 5 5 5 5 7 8 9 9 7 9 8 8 7 4 3 6 5 6 6 9 12 11 13 15 14 13 13 14 15 15 13 10 13 13 12 11 10 10 11 10 10 10 9
5 5 6 5 5 6 7 10 8 8 10 6 6 7 6 5 7 5 6 9 10 12 12 13 15 12 11 12 13 13 15 15 13 11 12 12 13 11 11 10 10 10 9 9 9
5 5 5 6 6 8 9 8 6 7 11 9 7 7 7 6 8 7 8 9 11 12 12 14 12 10 11 12 13 14 15 14 14 11 11 12 14 12 11 10 8 8 8 9 8
6 5 6 6 9 9 10 6 7 7 14 11 9 7 6 6 8 4 6 8 11 12 12 13 11 11 13 13 13 15 11 11 11 13 16 12 17 13 11 11 9 9 9 9 9
6 5 6 7 11 11 8 8 8 7 19 9 9 6 7 9 9 9 7 9 11 11 12 13 13 13 14 13 10 12 9 10 12 14 16 15 17 14 12 12 11 9 8 8 8
5 5 6 9 11 10 8 8 8 13 19 10 10 11 11 10 10 9 9 8 9 11 12 12 10 12 12 10 9 8 10 11 14 16 18 14 15 14 12 12 11 9 8 6 7
5 5 7 8 12 10 9 9 15 17 10 12 12 11 13 13 12 11 11 13 14 16 16 13 13 10 9 11 10 10 13 17 20 19 18 13 16 13 11 10 10 9 7 7 8
5 6 7 7 9 9 9 12 18 14 13 11 11 11 13 12 12 11 12 14 12 13 15 16 17 12 9 10 12 13 13 18 22 21 18 14 17 13 9 8 7 7 8 7 7
5 9 10 7 7 8 10 16 17 13 11 12 12 13 14 13 12 12 13 13 12 12 15 16 15 10 9 9 9 14 16 13 17 16 19 17 14 10 9 8 8 8 7 8 8
9 11 8 5 6 8 13 15 12 10 11 12 15 13 15 14 14 14 14 11 11 10 12 14 17 12 9 9 9 12 10 17 16 21 22 18 17 16 12 11 9 9 8 8 7
11 11 7 6 6 10 15 13 10 9 10 12 13 14 13 14 14 15 14 12 10 11 11 13 16 14 12 12 13 13 15 14 14 16 21 21 18 11 12 10 9 9 8 8 8
11 12 7 6 10 13 14 11 9 9 9 10 11 11 12 13 14 14 13 12 10 10 13 13 15 16 13 11 9 11 12 13 18 19 16 17 17 9 9 9 8 8 7 7 7
12 13 7 8 14 14 11 10 9 9 10 12 12 11 12 13 15 13 12 10 10 10 12 11 15 17 16 14 12 13 12 12 13 14 17 19 17 9 8 8 8 8 8 8 7
11 13 12 11 12 13 13 11 11 7 9 9 12 11 12 14 13 14 13 11 10 10 7 9 15 15 17 15 14 14 13 12 13 17 16 16 14 11 10 10 8 8 8 8 7
11 13 13 15 13 13 13 11 11 11 9 9 12 11 12 15 14 14 13 12 11 9 11 12 15 14 14 13 12 12 13 12 14 13 16 14 14 11 10 9 9 8 8 8 7
12 12 12 13 12 12 11 12 11 10 10 11 12 12 12 15 14 16 14 14 14 12 12 12 14 13 14 11 12 13 12 12 12 13 13 13 14 9 8 9 8 8 8 8 7
11 11 11 12 11 11 10 10 10 10 9 9 10 11 12 12 10 11 12 13 13 13 13 14 14 15 17 13 13 16 13 13 13 12 12 15 12 9 10 9 9 8 8 8 7